Regional Weather Roundup
Issued by NWS Cleveland, OH

Home | Current Version | Previous Version | Text Only | Print | Product List | Glossary Off
Versions: 1 2 3 4 5 6 7 8 9 10 11 12 13 14 15 16 17 18 19 20 21 22 23 24 25 26 27 28 29 30 31 32 33 34 35 36 37 38 39 40 41 42 43 44 45 46 47 48 49 50

000
ASUS41 KCLE 301910
RWRCLE
OHIO REGIONAL WEATHER ROUNDUP
NATIONAL WEATHER SERVICE WILMINGTON, OH
300 PM EDT SUN AUG 30 2015

NOTE: "FAIR" INDICATES FEW OR NO CLOUDS BELOW 12,000 FEET WITH NO
SIGNIFICANT WEATHER AND/OR OBSTRUCTIONS TO VISIBILITY.

OHZ001>008-015>018-024>027-034-035-043-044-302000-
   NORTHWEST OHIO

CITY           SKY/WX    TMP DP  RH WIND       PRES   REMARKS
DEFIANCE       PTSUNNY   83  67  58 VRB7      30.05F
FINDLAY        SUNNY     84  67  56 SW8       30.05F
TOLEDO EXPRESS PTSUNNY   81  67  62 SW8       30.04F
TOLEDO EXEC    MOSUNNY   84  67  56 W10       30.05F
LIMA           MOSUNNY   83  68  60 S8        30.06F
$$

OHZ009>014-019>023-028>033-038-089-302000-
   NORTHEAST OHIO

CITY           SKY/WX    TMP DP  RH WIND       PRES   REMARKS
CLE-HOPKINS    PTSUNNY   82  68  62 S10       30.08F
CLE-LAKEFRONT  MOSUNNY   80  70  71 N5        30.05F
CUY CO. ARPT   PTSUNNY   82  72  69 W9        30.09F
LORAIN-ELYRIA  MOSUNNY   83  66  56 SW12      30.07F
ASHTABULA      PTSUNNY   78  67  68 CALM      30.09F
AKRON-CANTON   PTSUNNY   81  66  60 SW6       30.10F
WOOSTER        LGT RAIN  78  67  68 SW6       30.10F
MANSFIELD      PTSUNNY   82  64  54 SW10      30.10F
YOUNGSTOWN     PTSUNNY   81  68  64 SW10      30.10F
$$

OHZ042-051>053-060>062-070>072-077>081-302000-
  SOUTHWEST OHIO

CITY           SKY/WX    TMP DP  RH WIND       PRES   REMARKS
CINC-COVINGTON PTSUNNY   85  69  58 SW9       30.08F
CINC-LUNKEN    PTSUNNY   84  70  62 VRB5      30.07F
HAMILTON       MOSUNNY   88  69  53 VRB5      30.07F HX  92
DAYTON         MOSUNNY   85  69  58 SW9       30.08F
WRIGHT-PAT AFB MOSUNNY   84  71  64 S8        30.07F
DAYTON GENERAL PTSUNNY   82  68  62 S5        30.08F
WILMINGTON     MOSUNNY   84  69  60 S9        30.09F
$$

OHZ036-037-039>041-045>050-054>059-063>069-073>076-082>088-302000-
  CENTRAL AND SOUTHEAST OHIO

CITY           SKY/WX    TMP DP  RH WIND       PRES   REMARKS
COLUMBUS       PTSUNNY   83  68  60 S9        30.07F
OSU AIRPORT    MOSUNNY   86  68  54 SW10      30.08F
BOLTON FIELD   PTSUNNY   82  70  65 SW5       30.09F
RICKENBACK AFB MOSUNNY   83  67  57 SW6       30.07F
NEWARK         MOSUNNY   85  68  56 S8        30.08F
MARION         SUNNY     83  68  60 SW8       30.08F
LANCASTER      MOSUNNY   85  67  54 SW9       30.09F
ZANESVILLE     MOSUNNY   86  63  45 SW8       30.09F
NEW PHILLY     MOSUNNY   82  66  58 W6        30.10F
$$


USA.gov is the U.S. government's official web portal to all federal, state and local government web resources and services.